Home   Weather   Houston   Past weeks
Flag for USA

Past Weather in Houston, Texas, USA — Yesterday and Last 2 Weeks

Now
75 °F

Passing clouds.


Feels Like: 76 °F
Forecast: 85 / 72 °F
Wind: 7 mph from East

Location: Houston Hobby Airport

Current Time: Oct 14, 2019 at 1:01:50 am

Latest Report: Oct 13, 2019 at 11:53 pm


Visibility: 10 mi

Pressure: 30.00 "Hg

Humidity: 76%

Dew Point: 67 °F

Location of HoustonLocation

Past Weather in Houston — Graph

°F

Houston Temperature Yesterday

Maximum temperature yesterday: 83 °F (at 3:53 pm)
Minimum temperature yesterday: 59 °F (at 1:53 am)
Average temperature yesterday: 71 °F

High & Low Weather Summary for the Past Weeks

 TemperatureHumidityPressure
High93 °F (Oct 3, 1:53 pm)91% (Oct 7, 6:53 am)30.21 "Hg (Oct 7, 6:53 am)
Low54 °F (Oct 11, 7:53 pm)34% (Oct 12, 4:53 pm)29.84 "Hg (Oct 10, 6:53 pm)
Average79 °F68%30.00 "Hg
* Reported Sep 28 11:53 pm — Oct 13 11:53 pm, Houston. Weather by CustomWeather, © 2019

Note: Actual official high and low records may vary slightly from our data, if they occured in-between our weather recording intervals... More about our weather records

Advertising

Houston Weather History for the Previous 24 Hours

Scroll right to see more
 ConditionsComfort  
Time TempWeatherWind HumidityBarometerVisibility
11:53 pm
Sun, Oct 13
75 °FPassing clouds.7 mph76%30.00 "Hg10 mi
10:53 pm75 °FPassing clouds.8 mph76%30.00 "Hg10 mi
9:53 pm74 °FPartly cloudy.8 mph76%30.00 "Hg10 mi
8:53 pm76 °FPartly cloudy.6 mph67%30.00 "Hg10 mi
7:53 pm76 °FPassing clouds.9 mph64%29.98 "Hg10 mi
6:53 pm78 °FPassing clouds.9 mph62%29.97 "Hg10 mi
5:53 pm80 °FPartly sunny.10 mph56%29.96 "Hg10 mi
4:53 pm83 °FScattered clouds.3 mph50%29.96 "Hg10 mi
3:53 pm83 °FScattered clouds.No wind50%29.97 "Hg10 mi
2:53 pm82 °FPartly sunny.No wind49%29.98 "Hg10 mi
1:53 pm80 °FBroken clouds.3 mph47%30.01 "Hg10 mi
12:53 pm80 °FBroken clouds.7 mph45%30.04 "Hg10 mi
11:53 am76 °FBroken clouds.3 mph48%30.07 "Hg10 mi
10:53 am72 °FBroken clouds.3 mph48%30.08 "Hg10 mi
9:53 am69 °FMore clouds than sun.5 mph55%30.07 "Hg10 mi
8:53 am65 °FPassing clouds.3 mph59%30.06 "Hg10 mi
7:53 am61 °FPartly sunny.6 mph65%30.04 "Hg10 mi
6:53 am61 °FPartly cloudy.7 mph65%30.04 "Hg10 mi
5:53 am59 °FPassing clouds.No wind72%30.04 "Hg10 mi
4:53 am61 °FPassing clouds.5 mph62%30.01 "Hg10 mi
3:53 am61 °FPassing clouds.5 mph60%30.03 "Hg10 mi
2:53 am60 °FPassing clouds.6 mph65%30.05 "Hg10 mi
1:53 am59 °FPassing clouds.7 mph67%30.06 "Hg10 mi
Weather by CustomWeather, © 2019

See weather overview